User: anonymous   Login
Location: Alphen aan den Rijn
(52.1277°N, 4.6689°E)
Time: 02:29:11
(UTC+02:00)
Language:

Envisat - Orbit

View from above orbital plane
View from above orbital plane
View from above satellite
View from above satellite

Ground track
Ground track

The orbit data is extracted from the following two-line orbital elements,

1 27386U 02009A   18168.53620764 -.00000025  00000-0  54236-5 0  9997
2 27386  98.1840 202.5808 0001232  93.7819  78.4138 14.37924011853579
Epoch (UTC): 17 June 2018 12:52:08
Eccentricity: 0.0001232
inclination: 98.1840°
perigee height: 764 km
apogee height: 766 km
right ascension of ascending node: 202.5808°
argument of perigee: 93.7819°
revolutions per day: 14.37924011
mean anomaly at epoch: 78.4138°
orbit number at epoch: 85357

The dashed part of the orbit path shows where the satellite is in the earth's shadow,  

DLR